TimeSAST,TemperatureF,Dew PointF,Humidity,Sea Level PressureIn,VisibilityMPH,Wind Direction,Wind SpeedMPH,Gust SpeedMPH,PrecipitationIn,Events,Conditions,WindDirDegrees,DateUTC
12:00 AM,51.8,48.2,88,30.21,-9999.0,North,2.3,-,N/A,,Clear,10,2013-10-07 22:00:00
1:00 AM,51.8,46.4,82,30.21,-9999.0,NNW,2.3,-,N/A,,Clear,340,2013-10-07 23:00:00
2:00 AM,51,47,81,30.21,12,,2.3,,,,,,2013-10-08 00:00:00
2:00 AM,50.0,48.2,94,30.18,-9999.0,NNW,3.5,-,N/A,,Clear,340,2013-10-08 00:00:00
3:00 AM,50.0,46.4,87,30.18,-9999.0,NNW,2.3,-,N/A,,Clear,340,2013-10-08 01:00:00
4:00 AM,48.2,46.4,93,30.15,-9999.0,NNW,4.6,-,N/A,,Clear,330,2013-10-08 02:00:00
5:00 AM,48,45,86,30.16,12,NNW,3.5,,,,,330,2013-10-08 03:00:00
5:00 AM,48.2,44.6,87,30.15,-9999.0,NNW,3.5,-,N/A,,Clear,330,2013-10-08 03:00:00
6:00 AM,50.0,46.4,87,30.15,-9999.0,North,3.5,-,N/A,,Clear,350,2013-10-08 04:00:00
7:00 AM,51.8,46.4,82,30.12,-9999.0,WNW,1.2,-,N/A,,Clear,290,2013-10-08 05:00:00
8:00 AM,56,50,75,30.15,12,WNW,3.5,,,,Clear,300,2013-10-08 06:00:00
8:00 AM,57.2,50.0,77,30.12,-9999.0,WNW,3.5,-,N/A,,Clear,300,2013-10-08 06:00:00
9:00 AM,62.6,50.0,63,30.12,-9999.0,Variable,1.2,-,N/A,,Clear,0,2013-10-08 07:00:00
10:00 AM,68.0,50.0,52,30.12,-9999.0,Variable,2.3,-,N/A,,Clear,0,2013-10-08 08:00:00
11:00 AM,68,52,45,30.11,12,,2.3,,,,Clear,,2013-10-08 09:00:00
11:00 AM,68.0,51.8,56,30.09,-9999.0,Variable,2.3,-,N/A,,Clear,0,2013-10-08 09:00:00
12:00 PM,69.8,53.6,56,30.06,-9999.0,SSE,8.1,-,N/A,,Clear,160,2013-10-08 10:00:00
1:00 PM,69.8,53.6,56,30.04,-9999.0,SE,6.9,-,N/A,,Clear,130,2013-10-08 11:00:00
2:00 PM,70,51,39,30.01,19,SE,10.4,,,,Clear,140,2013-10-08 12:00:00
2:00 PM,69.8,50.0,49,30.01,-9999.0,SE,9.2,-,N/A,,Clear,140,2013-10-08 12:00:00
3:00 PM,71.6,50.0,46,30.01,-9999.0,SE,6.9,-,N/A,,Clear,140,2013-10-08 13:00:00
4:00 PM,71.6,50.0,46,29.98,-9999.0,SE,5.8,-,N/A,,Clear,130,2013-10-08 14:00:00
5:00 PM,71,49,34,29.98,19,SE,8.1,,,,Scattered Clouds,140,2013-10-08 15:00:00
5:00 PM,71.6,50.0,46,29.98,-9999.0,SE,8.1,-,N/A,,Clear,140,2013-10-08 15:00:00
6:00 PM,64.4,53.6,68,30.01,-9999.0,SE,9.2,-,N/A,,Clear,140,2013-10-08 16:00:00
7:00 PM,60.8,53.6,77,30.01,-9999.0,East,4.6,-,N/A,,Clear,80,2013-10-08 17:00:00
8:00 PM,60,53,70,30.03,12,ENE,3.5,,,,Clear,60,2013-10-08 18:00:00
8:00 PM,59.0,53.6,82,30.04,-9999.0,ENE,5.8,-,N/A,,Clear,70,2013-10-08 18:00:00
9:00 PM,57.2,51.8,82,30.04,-9999.0,NW,2.3,-,N/A,,Clear,310,2013-10-08 19:00:00
10:00 PM,55.4,51.8,88,30.04,-9999.0,NW,3.5,-,N/A,,Clear,310,2013-10-08 20:00:00
11:00 PM,55.4,50.0,82,30.04,-9999.0,NNW,4.6,-,N/A,,Clear,330,2013-10-08 21:00:00